Weather History for Akron, CO

Change the Weather History Date:

Thursday, April 17, 2014

  Actual Average Record
Temperature  
Mean Temperature 46 °F 47 °F  
Max Temperature 61 °F 61 °F 87 °F (1948)
Min Temperature 30 °F 34 °F 13 °F (1944)
Degree Days  
Heating Degree Days 19    
Month to date heating degree days 341  
Cooling Degree Days 0    
Month to date cooling degree days 0  
Moisture  
Dew Point 33 °F    
Average Humidity 65    
Maximum Humidity 100    
Minimum Humidity 29    
Precipitation  
Precipitation 0.00 in 0.06 in 0.72 in (1970)
Month to date precipitation 0.54 0.79  
Year to date precipitation 1.40 2.40  
Sea Level Pressure  
Sea Level Pressure 30.09 in    
Wind  
Wind Speed 14 mph (SSE)    
Max Wind Speed 26 mph    
Max Gust Speed 37 mph    
Visibility 7 miles    
Events Fog    
T = Trace of Precipitation, MM = Missing Value Source: NWS Daily Summary

Daily Weather History Graph

Daily Weather History Graph

Search for Another Location

Airport:

Trip Planner

Search our weather history database for the weather conditions in past years. The results will help you decide how hot, cold, wet, or windy it might be!

Date:

Astronomy

Apr. 17, 2014 Rise Set
Actual Time 6:11 AM MDT 7:33 PM MDT
Civil Twilight 5:43 AM MDT 8:02 PM MDT
Nautical Twilight 5:09 AM MDT 8:36 PM MDT
Astronomical Twilight 4:33 AM MDT 9:11 PM MDT
Moon 10:21 PM MDT (4/17) 7:45 AM MDT (4/17)
Length of Visible Light 14h 18m
Length of Day
13h 21m
Waning Gibbous, 93% of the Moon is Illuminated
Apr 17
Waning Gibbous
Apr 22
Last Quarter
Apr 29
New
May 6
First Quarter
May 14
Full

Hourly Weather History & Observations

Time (MDT) Temp. Windchill Dew Point Humidity Pressure Visibility Wind Dir Wind Speed Gust Speed Precip Events Conditions
12:53 AM 34.0 °F 27.2 °F 30.9 °F 89% 30.14 in 10.0 mi ESE 8.1 mph - N/A   Overcast
1:53 AM 32.0 °F 25.6 °F 30.9 °F 96% 30.12 in 10.0 mi ESE 6.9 mph - N/A   Clear
2:53 AM 32.0 °F 22.5 °F 30.0 °F 92% 30.12 in 10.0 mi SE 12.7 mph - N/A   Clear
3:33 AM 30.9 °F 22.2 °F 28.9 °F 92% 30.13 in 7.0 mi SE 10.4 mph - N/A   Scattered Clouds
3:42 AM 30.9 °F 21.2 °F 30.0 °F 96% 30.13 in 5.0 mi SE 12.7 mph - N/A   Mostly Cloudy
3:53 AM 30.9 °F 21.2 °F 30.0 °F 96% 30.13 in 3.0 mi SE 12.7 mph - N/A   Overcast
3:59 AM 30.9 °F 21.2 °F 30.9 °F 100% 30.12 in 1.8 mi SE 12.7 mph - N/A   Overcast
4:02 AM 30.9 °F 20.2 °F 30.9 °F 100% 30.12 in 1.0 mi SE 15.0 mph - N/A   Overcast
4:10 AM 30.9 °F 20.7 °F 30.9 °F 100% 30.12 in 0.5 mi SE 13.8 mph - N/A Fog Light Freezing Fog
4:53 AM 30.9 °F 19.1 °F 30.9 °F 100% 30.13 in 0.2 mi SE 18.4 mph - N/A Fog Light Freezing Fog
5:53 AM 32.0 °F 22.5 °F 32.0 °F 100% 30.14 in 0.5 mi SSE 12.7 mph - N/A Fog Fog
6:53 AM 32.0 °F 22.1 °F 32.0 °F 100% 30.16 in 0.2 mi SSE 13.8 mph - N/A Fog Fog
7:53 AM 33.1 °F 23.4 °F 33.1 °F 100% 30.18 in 1.0 mi SSE 13.8 mph - N/A   Overcast
8:11 AM 34.0 °F 24.2 °F 34.0 °F 100% 30.14 in 1.5 mi SSE 15.0 mph - N/A   Overcast
8:20 AM 34.0 °F 23.8 °F 34.0 °F 100% 30.14 in 2.5 mi SSE 16.1 mph - N/A   Overcast
8:27 AM 35.1 °F 25.2 °F 35.1 °F 100% 30.14 in 4.0 mi SSE 16.1 mph - N/A   Overcast
8:53 AM 37.0 °F 27.7 °F 35.1 °F 93% 30.18 in 10.0 mi SSE 16.1 mph - N/A   Overcast
9:02 AM 37.0 °F 27.4 °F 35.1 °F 93% 30.14 in 10.0 mi SSE 17.3 mph - N/A   Overcast
9:15 AM 39.0 °F 30.3 °F 36.0 °F 89% 30.14 in 10.0 mi SSE 16.1 mph - N/A   Overcast
9:53 AM 46.0 °F 38.5 °F 37.9 °F 73% 30.14 in 10.0 mi SE 19.6 mph 24.2 mph N/A   Overcast
11:53 AM 53.1 °F - 34.0 °F 48% 30.09 in 10.0 mi South 17.3 mph 26.5 mph N/A   Partly Cloudy
12:53 PM 57.0 °F - 35.1 °F 44% 30.05 in 10.0 mi South 20.7 mph 38.0 mph N/A   Partly Cloudy
1:53 PM 59.0 °F - 32.0 °F 36% 30.03 in 10.0 mi South 21.9 mph 32.2 mph N/A   Overcast
2:53 PM 59.0 °F - 30.9 °F 35% 30.02 in 10.0 mi South 16.1 mph 28.8 mph N/A   Mostly Cloudy
3:53 PM 60.1 °F - 28.9 °F 31% 30.01 in 10.0 mi South 15.0 mph - N/A   Partly Cloudy
4:53 PM 60.1 °F - 28.9 °F 31% 29.99 in 10.0 mi South 19.6 mph - N/A   Partly Cloudy
5:53 PM 59.0 °F - 28.9 °F 32% 29.99 in 10.0 mi South 17.3 mph - N/A   Clear
6:53 PM 55.9 °F - 30.0 °F 37% 30.00 in 10.0 mi South 16.1 mph - N/A   Clear
7:53 PM 51.1 °F - 35.1 °F 54% 30.02 in 10.0 mi South 19.6 mph - N/A   Clear
8:53 PM 48.0 °F - 35.1 °F 61% 30.04 in 10.0 mi South 19.6 mph 27.6 mph N/A   Clear
9:53 PM 45.0 °F 36.9 °F 36.0 °F 71% 30.03 in 10.0 mi South 20.7 mph 29.9 mph N/A   Clear
10:53 PM 44.1 °F 35.7 °F 36.0 °F 73% 30.01 in 10.0 mi South 20.7 mph 32.2 mph N/A   Clear
11:53 PM 42.1 °F 32.6 °F 35.1 °F 76% 30.00 in 10.0 mi South 23.0 mph 34.5 mph N/A   Clear